Time,TemperatureF,DewpointF,PressureIn,WindDirection,WindDirectionDegrees,WindSpeedMPH,WindSpeedGustMPH,Humidity,HourlyPrecipIn,Conditions,Clouds,dailyrainin,SoftwareType,DateUTC
2013-11-13 00:02:00,53.9,46.5,30.37,NNE,22,0.0,5.0,76,0.00,,,0.00,Wunderground v.1.15,2013-11-13 06:02:00,
2013-11-13 00:08:00,53.9,46.5,30.37,NNE,25,2.0,3.0,76,0.00,,,0.00,Wunderground v.1.15,2013-11-13 06:08:00,
2013-11-13 00:13:00,54.0,46.6,30.37,North,9,1.0,3.0,76,0.00,,,0.00,Wunderground v.1.15,2013-11-13 06:13:00,
2013-11-13 00:18:00,54.0,47.0,30.38,North,349,0.0,2.0,77,0.00,,,0.00,Wunderground v.1.15,2013-11-13 06:18:00,
2013-11-13 00:24:00,54.0,47.0,30.37,East,79,0.0,2.0,77,0.00,,,0.00,Wunderground v.1.15,2013-11-13 06:24:00,
2013-11-13 00:29:00,53.9,46.9,30.37,NNW,330,0.0,3.0,77,0.00,,,0.00,Wunderground v.1.15,2013-11-13 06:29:00,
2013-11-13 00:35:00,53.9,46.9,30.36,NNE,16,0.0,1.0,77,0.00,,,0.00,Wunderground v.1.15,2013-11-13 06:35:00,
2013-11-13 00:40:00,53.9,46.9,30.36,ESE,103,2.0,6.0,77,0.00,,,0.00,Wunderground v.1.15,2013-11-13 06:40:00,
2013-11-13 00:46:00,53.8,46.4,30.36,NW,304,1.0,2.0,76,0.00,,,0.00,Wunderground v.1.15,2013-11-13 06:46:00,
2013-11-13 00:51:00,53.8,46.4,30.36,NNE,23,2.0,6.0,76,0.00,,,0.00,Wunderground v.1.15,2013-11-13 06:51:00,
2013-11-13 00:57:00,53.7,46.3,30.36,NNW,347,0.0,2.0,76,0.00,,,0.00,Wunderground v.1.15,2013-11-13 06:57:00,
2013-11-13 01:02:00,53.5,46.1,30.36,NE,41,1.0,2.0,76,0.00,,,0.00,Wunderground v.1.15,2013-11-13 07:02:00,
2013-11-13 01:07:00,53.2,45.5,30.36,NNE,23,2.0,2.0,75,0.00,,,0.00,Wunderground v.1.15,2013-11-13 07:07:00,
2013-11-13 01:13:00,53.0,45.6,30.36,ENE,61,2.0,3.0,76,0.00,,,0.00,Wunderground v.1.15,2013-11-13 07:13:00,
2013-11-13 01:18:00,52.7,45.3,30.36,ENE,68,0.0,2.0,76,0.00,,,0.00,Wunderground v.1.15,2013-11-13 07:18:00,
2013-11-13 01:23:00,52.4,45.1,30.37,North,6,1.0,2.0,76,0.00,,,0.00,Wunderground v.1.15,2013-11-13 07:23:00,
2013-11-13 01:28:00,52.2,44.9,30.36,NNE,21,0.0,2.0,76,0.00,,,0.00,Wunderground v.1.15,2013-11-13 07:28:00,
2013-11-13 01:34:00,52.0,44.7,30.37,North,8,3.0,3.0,76,0.00,,,0.00,Wunderground v.1.15,2013-11-13 07:34:00,
2013-11-13 01:39:00,51.8,44.5,30.37,North,354,0.0,3.0,76,0.00,,,0.00,Wunderground v.1.15,2013-11-13 07:39:00,
2013-11-13 01:44:00,51.7,44.4,30.37,North,349,0.0,3.0,76,0.00,,,0.00,Wunderground v.1.15,2013-11-13 07:44:00,
2013-11-13 01:50:00,51.5,44.2,30.37,NE,37,0.0,1.0,76,0.00,,,0.00,Wunderground v.1.15,2013-11-13 07:50:00,
2013-11-13 01:55:00,51.3,44.3,30.37,NE,40,2.0,2.0,77,0.00,,,0.00,Wunderground v.1.15,2013-11-13 07:55:00,
2013-11-13 02:00:00,51.1,43.8,30.37,NNE,27,1.0,6.0,76,0.00,,,0.00,Wunderground v.1.15,2013-11-13 08:00:00,
2013-11-13 02:05:00,51.0,43.7,30.36,NE,38,1.0,6.0,76,0.00,,,0.00,Wunderground v.1.15,2013-11-13 08:05:00,
2013-11-13 02:10:00,51.0,43.4,30.37,NE,37,2.0,3.0,75,0.00,,,0.00,Wunderground v.1.15,2013-11-13 08:10:00,
2013-11-13 02:15:00,51.0,43.7,30.37,NNE,19,0.0,5.0,76,0.00,,,0.00,Wunderground v.1.15,2013-11-13 08:15:00,
2013-11-13 02:20:00,51.0,43.7,30.37,NNE,13,1.0,5.0,76,0.00,,,0.00,Wunderground v.1.15,2013-11-13 08:20:00,
2013-11-13 02:25:00,50.9,43.6,30.38,NNW,347,2.0,5.0,76,0.00,,,0.00,Wunderground v.1.15,2013-11-13 08:25:00,
2013-11-13 02:30:00,50.8,43.8,30.37,NNE,33,3.0,4.0,77,0.00,,,0.00,Wunderground v.1.15,2013-11-13 08:30:00,
2013-11-13 02:35:00,50.7,43.8,30.37,NE,39,1.0,4.0,77,0.00,,,0.00,Wunderground v.1.15,2013-11-13 08:35:00,
2013-11-13 02:40:00,50.6,43.7,30.38,NNE,26,2.0,5.0,77,0.00,,,0.00,Wunderground v.1.15,2013-11-13 08:40:00,
2013-11-13 02:45:00,50.5,43.6,30.38,NE,39,2.0,5.0,77,0.00,,,0.00,Wunderground v.1.15,2013-11-13 08:45:00,
2013-11-13 02:50:00,50.4,43.5,30.37,NNE,18,0.0,5.0,77,0.00,,,0.00,Wunderground v.1.15,2013-11-13 08:50:00,
2013-11-13 02:55:00,50.3,43.0,30.38,WNW,284,3.0,6.0,76,0.00,,,0.00,Wunderground v.1.15,2013-11-13 08:55:00,
2013-11-13 03:00:00,50.1,42.8,30.38,NNE,20,3.0,7.0,76,0.00,,,0.00,Wunderground v.1.15,2013-11-13 09:00:00,
2013-11-13 03:05:00,50.0,42.7,30.38,North,6,1.0,7.0,76,0.00,,,0.00,Wunderground v.1.15,2013-11-13 09:05:00,
2013-11-13 03:10:00,49.9,43.0,30.38,NNE,25,0.0,4.0,77,0.00,,,0.00,Wunderground v.1.15,2013-11-13 09:10:00,
2013-11-13 03:15:00,49.7,42.8,30.38,NW,312,0.0,4.0,77,0.00,,,0.00,Wunderground v.1.15,2013-11-13 09:15:00,
2013-11-13 03:20:00,49.4,41.5,30.37,NNW,341,1.0,5.0,74,0.00,,,0.00,Wunderground v.1.15,2013-11-13 09:20:00,
2013-11-13 03:25:00,49.1,40.1,30.38,NNW,338,2.0,5.0,71,0.00,,,0.00,Wunderground v.1.15,2013-11-13 09:25:00,
2013-11-13 03:30:00,48.8,39.8,30.38,WNW,293,3.0,5.0,71,0.00,,,0.00,Wunderground v.1.15,2013-11-13 09:30:00,
2013-11-13 03:35:00,48.6,39.3,30.38,North,349,2.0,7.0,70,0.00,,,0.00,Wunderground v.1.15,2013-11-13 09:35:00,
2013-11-13 03:40:00,48.3,39.0,30.38,North,1,3.0,8.0,70,0.00,,,0.00,Wunderground v.1.15,2013-11-13 09:40:00,
2013-11-13 03:45:00,48.2,38.5,30.38,NNW,329,1.0,8.0,69,0.00,,,0.00,Wunderground v.1.15,2013-11-13 09:45:00,
2013-11-13 03:50:00,48.0,38.3,30.38,NNE,33,2.0,6.0,69,0.00,,,0.00,Wunderground v.1.15,2013-11-13 09:50:00,
2013-11-13 03:55:00,47.9,38.2,30.38,SSE,153,1.0,6.0,69,0.00,,,0.00,Wunderground v.1.15,2013-11-13 09:55:00,
2013-11-13 04:00:00,47.7,38.0,30.38,NW,326,0.0,5.0,69,0.00,,,0.00,Wunderground v.1.15,2013-11-13 10:00:00,
2013-11-13 04:05:00,47.5,37.5,30.38,NNW,335,1.0,5.0,68,0.00,,,0.00,Wunderground v.1.15,2013-11-13 10:05:00,
2013-11-13 04:10:00,47.3,37.3,30.38,NNE,20,1.0,6.0,68,0.00,,,0.00,Wunderground v.1.15,2013-11-13 10:10:00,
2013-11-13 04:15:00,47.2,37.2,30.38,NNW,341,1.0,6.0,68,0.00,,,0.00,Wunderground v.1.15,2013-11-13 10:15:00,
2013-11-13 04:20:00,47.1,37.4,30.38,NNW,333,0.0,5.0,69,0.00,,,0.00,Wunderground v.1.15,2013-11-13 10:20:00,
2013-11-13 04:25:00,46.9,37.3,30.38,NNW,335,3.0,8.0,69,0.00,,,0.00,Wunderground v.1.15,2013-11-13 10:25:00,
2013-11-13 04:30:00,46.8,37.2,30.38,North,356,1.0,4.0,69,0.00,,,0.00,Wunderground v.1.15,2013-11-13 10:30:00,
2013-11-13 04:35:00,46.7,37.1,30.38,NNE,29,0.0,5.0,69,0.00,,,0.00,Wunderground v.1.15,2013-11-13 10:35:00,
2013-11-13 04:40:00,46.6,37.0,30.38,WNW,291,0.0,3.0,69,0.00,,,0.00,Wunderground v.1.15,2013-11-13 10:40:00,
2013-11-13 04:45:00,46.5,37.2,30.38,NNW,338,1.0,4.0,70,0.00,,,0.00,Wunderground v.1.15,2013-11-13 10:45:00,
2013-11-13 04:50:00,46.4,37.1,30.38,NNE,21,2.0,4.0,70,0.00,,,0.00,Wunderground v.1.15,2013-11-13 10:50:00,
2013-11-13 04:56:00,46.3,37.0,30.38,NNW,341,2.0,2.0,70,0.00,,,0.00,Wunderground v.1.15,2013-11-13 10:56:00,
2013-11-13 05:01:00,46.3,37.4,30.38,NNW,333,1.0,4.0,71,0.00,,,0.00,Wunderground v.1.15,2013-11-13 11:01:00,
2013-11-13 05:06:00,46.2,37.3,30.38,NW,325,2.0,2.0,71,0.00,,,0.00,Wunderground v.1.15,2013-11-13 11:06:00,
2013-11-13 05:11:00,46.1,37.6,30.38,NW,316,2.0,5.0,72,0.00,,,0.00,Wunderground v.1.15,2013-11-13 11:11:00,
2013-11-13 05:16:00,46.0,37.5,30.38,East,86,1.0,4.0,72,0.00,,,0.00,Wunderground v.1.15,2013-11-13 11:16:00,
2013-11-13 05:21:00,45.9,37.7,30.38,NNW,336,0.0,5.0,73,0.00,,,0.00,Wunderground v.1.15,2013-11-13 11:21:00,
2013-11-13 05:26:00,45.8,37.6,30.38,NNE,23,0.0,1.0,73,0.00,,,0.00,Wunderground v.1.15,2013-11-13 11:26:00,
2013-11-13 05:31:00,45.7,37.9,30.38,NNE,19,0.0,5.0,74,0.00,,,0.00,Wunderground v.1.15,2013-11-13 11:31:00,
2013-11-13 05:36:00,45.7,37.9,30.38,North,11,1.0,1.0,74,0.00,,,0.00,Wunderground v.1.15,2013-11-13 11:36:00,
2013-11-13 05:41:00,45.6,37.8,30.38,NNE,30,1.0,4.0,74,0.00,,,0.00,Wunderground v.1.15,2013-11-13 11:41:00,
2013-11-13 05:46:00,45.4,37.6,30.38,NE,36,2.0,4.0,74,0.00,,,0.00,Wunderground v.1.15,2013-11-13 11:46:00,
2013-11-13 05:51:00,45.2,37.4,30.38,NNW,345,1.0,4.0,74,0.00,,,0.00,Wunderground v.1.15,2013-11-13 11:51:00,
2013-11-13 05:56:00,45.1,37.6,30.39,NW,309,3.0,3.0,75,0.00,,,0.00,Wunderground v.1.15,2013-11-13 11:56:00,
2013-11-13 06:01:00,44.9,37.5,30.38,NNE,13,0.0,6.0,75,0.00,,,0.00,Wunderground v.1.15,2013-11-13 12:01:00,
2013-11-13 06:06:00,44.7,37.3,30.39,NNE,25,1.0,2.0,75,0.00,,,0.00,Wunderground v.1.15,2013-11-13 12:06:00,
2013-11-13 06:11:00,44.5,37.1,30.39,NNE,13,2.0,4.0,75,0.00,,,0.00,Wunderground v.1.15,2013-11-13 12:11:00,
2013-11-13 06:16:00,44.4,37.0,30.38,NNE,22,1.0,3.0,75,0.00,,,0.00,Wunderground v.1.15,2013-11-13 12:16:00,
2013-11-13 06:21:00,44.2,37.1,30.39,NNE,29,1.0,7.0,76,0.00,,,0.00,Wunderground v.1.15,2013-11-13 12:21:00,
2013-11-13 06:26:00,44.0,36.9,30.39,NW,311,0.0,7.0,76,0.00,,,0.00,Wunderground v.1.15,2013-11-13 12:26:00,
2013-11-13 06:31:00,43.9,36.8,30.40,NNE,18,1.0,6.0,76,0.00,,,0.00,Wunderground v.1.15,2013-11-13 12:31:00,
2013-11-13 06:36:00,43.8,36.7,30.39,NE,40,2.0,6.0,76,0.00,,,0.00,Wunderground v.1.15,2013-11-13 12:36:00,
2013-11-13 06:41:00,43.6,36.5,30.40,North,349,0.0,6.0,76,0.00,,,0.00,Wunderground v.1.15,2013-11-13 12:41:00,
2013-11-13 06:46:00,43.5,36.4,30.40,NNW,336,2.0,8.0,76,0.00,,,0.00,Wunderground v.1.15,2013-11-13 12:46:00,
2013-11-13 06:51:00,43.5,36.4,30.40,NW,323,0.0,4.0,76,0.00,,,0.00,Wunderground v.1.15,2013-11-13 12:51:00,
2013-11-13 06:56:00,43.3,36.2,30.40,NNW,336,0.0,6.0,76,0.00,,,0.00,Wunderground v.1.15,2013-11-13 12:56:00,
2013-11-13 07:01:00,43.2,36.5,30.40,NNE,27,0.0,4.0,77,0.00,,,0.00,Wunderground v.1.15,2013-11-13 13:01:00,
2013-11-13 07:06:00,43.1,36.4,30.40,ENE,75,5.0,5.0,77,0.00,,,0.00,Wunderground v.1.15,2013-11-13 13:06:00,
2013-11-13 07:11:00,42.9,36.2,30.40,WSW,244,0.0,5.0,77,0.00,,,0.00,Wunderground v.1.15,2013-11-13 13:11:00,
2013-11-13 07:16:00,42.8,36.1,30.40,NNE,22,1.0,1.0,77,0.00,,,0.00,Wunderground v.1.15,2013-11-13 13:16:00,
2013-11-13 07:21:00,42.7,36.3,30.40,NNE,18,0.0,4.0,78,0.00,,,0.00,Wunderground v.1.15,2013-11-13 13:21:00,
2013-11-13 07:26:00,42.6,36.2,30.41,NNW,334,0.0,1.0,78,0.00,,,0.00,Wunderground v.1.15,2013-11-13 13:26:00,
2013-11-13 07:31:00,42.6,36.2,30.41,NW,321,1.0,4.0,78,0.00,,,0.00,Wunderground v.1.15,2013-11-13 13:31:00,
2013-11-13 07:36:00,42.5,36.1,30.41,NNE,29,0.0,1.0,78,0.00,,,0.00,Wunderground v.1.15,2013-11-13 13:36:00,
2013-11-13 07:41:00,42.5,36.4,30.41,NNE,33,0.0,3.0,79,0.00,,,0.00,Wunderground v.1.15,2013-11-13 13:41:00,
2013-11-13 07:46:00,42.6,36.5,30.41,North,349,0.0,4.0,79,0.00,,,0.00,Wunderground v.1.15,2013-11-13 13:46:00,
2013-11-13 07:51:00,42.7,36.6,30.41,North,8,1.0,5.0,79,0.00,,,0.00,Wunderground v.1.15,2013-11-13 13:51:00,
2013-11-13 07:57:00,42.7,36.6,30.41,NNE,23,1.0,3.0,79,0.00,,,0.00,Wunderground v.1.15,2013-11-13 13:57:00,
2013-11-13 08:02:00,42.8,36.4,30.42,NNE,32,3.0,4.0,78,0.00,,,0.00,Wunderground v.1.15,2013-11-13 14:02:00,
2013-11-13 08:07:00,42.9,36.5,30.42,NNE,16,1.0,2.0,78,0.00,,,0.00,Wunderground v.1.15,2013-11-13 14:07:00,
2013-11-13 08:12:00,42.9,36.2,30.42,NNE,29,1.0,6.0,77,0.00,,,0.00,Wunderground v.1.15,2013-11-13 14:12:00,
2013-11-13 08:17:00,43.1,36.7,30.42,ENE,59,0.0,1.0,78,0.00,,,0.00,Wunderground v.1.15,2013-11-13 14:17:00,
2013-11-13 08:22:00,43.3,36.6,30.42,NE,47,0.0,2.0,77,0.00,,,0.00,Wunderground v.1.15,2013-11-13 14:22:00,
2013-11-13 08:28:00,43.3,36.2,30.42,NNE,23,0.0,2.0,76,0.00,,,0.00,Wunderground v.1.15,2013-11-13 14:28:00,
2013-11-13 08:33:00,43.5,36.4,30.42,NNE,26,3.0,3.0,76,0.00,,,0.00,Wunderground v.1.15,2013-11-13 14:33:00,
2013-11-13 08:39:00,43.5,35.8,30.42,ESE,110,1.0,3.0,74,0.00,,,0.00,Wunderground v.1.15,2013-11-13 14:39:00,
2013-11-13 08:44:00,43.6,35.9,30.42,North,1,1.0,3.0,74,0.00,,,0.00,Wunderground v.1.15,2013-11-13 14:44:00,
2013-11-13 08:50:00,44.0,36.2,30.42,NNE,32,1.0,3.0,74,0.00,,,0.00,Wunderground v.1.15,2013-11-13 14:50:00,
2013-11-13 08:55:00,44.1,35.3,30.42,NNE,20,1.0,3.0,71,0.00,,,0.00,Wunderground v.1.15,2013-11-13 14:55:00,
2013-11-13 09:00:00,44.4,35.2,30.42,NNE,27,1.0,5.0,70,0.00,,,0.00,Wunderground v.1.15,2013-11-13 15:00:00,
2013-11-13 09:05:00,44.8,35.6,30.42,North,8,1.0,2.0,70,0.00,,,0.00,Wunderground v.1.15,2013-11-13 15:05:00,
2013-11-13 09:10:00,44.7,35.1,30.41,NE,36,0.0,5.0,69,0.00,,,0.00,Wunderground v.1.15,2013-11-13 15:10:00,
2013-11-13 09:15:00,44.8,35.6,30.41,NNW,343,2.0,2.0,70,0.00,,,0.00,Wunderground v.1.15,2013-11-13 15:15:00,
2013-11-13 09:20:00,44.7,35.1,30.41,NNE,27,0.0,3.0,69,0.00,,,0.00,Wunderground v.1.15,2013-11-13 15:20:00,
2013-11-13 09:25:00,44.6,35.8,30.42,NNE,25,0.0,1.0,71,0.00,,,0.00,Wunderground v.1.15,2013-11-13 15:25:00,
2013-11-13 09:30:00,44.4,35.2,30.41,ESE,122,1.0,4.0,70,0.00,,,0.00,Wunderground v.1.15,2013-11-13 15:30:00,
2013-11-13 09:35:00,44.3,35.5,30.41,NNE,27,0.0,1.0,71,0.00,,,0.00,Wunderground v.1.15,2013-11-13 15:35:00,
2013-11-13 09:40:00,44.2,35.4,30.41,NNW,336,2.0,4.0,71,0.00,,,0.00,Wunderground v.1.15,2013-11-13 15:40:00,
2013-11-13 09:45:00,44.4,34.9,30.41,ENE,61,0.0,3.0,69,0.00,,,0.00,Wunderground v.1.15,2013-11-13 15:45:00,
2013-11-13 09:50:00,44.8,35.2,30.41,North,1,1.0,4.0,69,0.00,,,0.00,Wunderground v.1.15,2013-11-13 15:50:00,
2013-11-13 09:55:00,45.1,35.2,30.41,WNW,288,0.0,1.0,68,0.00,,,0.00,Wunderground v.1.15,2013-11-13 15:55:00,
2013-11-13 10:00:00,45.1,35.2,30.41,NNE,20,2.0,3.0,68,0.00,,,0.00,Wunderground v.1.15,2013-11-13 16:00:00,
2013-11-13 10:05:00,45.2,34.9,30.41,NNE,26,0.0,3.0,67,0.00,,,0.00,Wunderground v.1.15,2013-11-13 16:05:00,
2013-11-13 10:10:00,45.6,35.3,30.42,North,353,0.0,2.0,67,0.00,,,0.00,Wunderground v.1.15,2013-11-13 16:10:00,
2013-11-13 10:15:00,46.1,35.0,30.41,WNW,290,1.0,5.0,65,0.00,,,0.00,Wunderground v.1.15,2013-11-13 16:15:00,
2013-11-13 10:20:00,46.4,35.7,30.42,ENE,70,0.0,2.0,66,0.00,,,0.00,Wunderground v.1.15,2013-11-13 16:20:00,
2013-11-13 10:25:00,47.1,35.9,30.42,NNE,27,1.0,4.0,65,0.00,,,0.00,Wunderground v.1.15,2013-11-13 16:25:00,
2013-11-13 10:30:00,47.4,35.8,30.41,NE,44,0.0,1.0,64,0.00,,,0.00,Wunderground v.1.15,2013-11-13 16:30:00,
2013-11-13 10:35:00,47.7,36.1,30.42,ENE,70,0.0,4.0,64,0.00,,,0.00,Wunderground v.1.15,2013-11-13 16:35:00,
2013-11-13 10:40:00,48.0,36.0,30.42,WNW,300,2.0,3.0,63,0.00,,,0.00,Wunderground v.1.15,2013-11-13 16:40:00,
2013-11-13 10:45:00,47.7,35.3,30.41,NNW,335,1.0,3.0,62,0.00,,,0.00,Wunderground v.1.15,2013-11-13 16:45:00,
2013-11-13 10:49:00,47.5,35.9,30.41,NNE,25,0.0,3.0,64,0.00,,,0.00,Wunderground v.1.15,2013-11-13 16:49:00,
2013-11-13 10:54:00,48.2,36.2,30.42,ESE,107,0.0,5.0,63,0.00,,,0.00,Wunderground v.1.15,2013-11-13 16:54:00,
2013-11-13 10:59:00,48.8,36.8,30.41,NW,324,1.0,2.0,63,0.00,,,0.00,Wunderground v.1.15,2013-11-13 16:59:00,
2013-11-13 11:04:00,49.0,36.1,30.41,West,267,0.0,2.0,61,0.00,,,0.00,Wunderground v.1.15,2013-11-13 17:04:00,
2013-11-13 11:09:00,48.5,34.8,30.41,NNE,18,0.0,3.0,59,0.00,,,0.00,Wunderground v.1.15,2013-11-13 17:09:00,
2013-11-13 11:14:00,48.5,35.2,30.41,NE,34,0.0,3.0,60,0.00,,,0.00,Wunderground v.1.15,2013-11-13 17:14:00,
2013-11-13 11:19:00,49.0,35.3,30.41,NE,44,1.0,3.0,59,0.00,,,0.00,Wunderground v.1.15,2013-11-13 17:19:00,
2013-11-13 11:24:00,49.5,35.8,30.40,ENE,61,0.0,3.0,59,0.00,,,0.00,Wunderground v.1.15,2013-11-13 17:24:00,
2013-11-13 11:29:00,50.0,35.4,30.41,NW,311,0.0,3.0,57,0.00,,,0.00,Wunderground v.1.15,2013-11-13 17:29:00,
2013-11-13 11:34:00,50.1,35.4,30.40,NNE,22,0.0,4.0,57,0.00,,,0.00,Wunderground v.1.15,2013-11-13 17:34:00,
2013-11-13 11:39:00,50.0,35.8,30.40,NE,56,0.0,5.0,58,0.00,,,0.00,Wunderground v.1.15,2013-11-13 17:39:00,
2013-11-13 11:44:00,50.1,35.9,30.40,ENE,60,0.0,5.0,58,0.00,,,0.00,Wunderground v.1.15,2013-11-13 17:44:00,
2013-11-13 11:49:00,50.9,34.8,30.39,WNW,300,0.0,4.0,54,0.00,,,0.00,Wunderground v.1.15,2013-11-13 17:49:00,
2013-11-13 11:54:00,51.5,35.9,30.39,NW,307,0.0,4.0,55,0.00,,,0.00,Wunderground v.1.15,2013-11-13 17:54:00,
2013-11-13 11:59:00,51.8,35.2,30.39,NNE,27,0.0,5.0,53,0.00,,,0.00,Wunderground v.1.15,2013-11-13 17:59:00,
2013-11-13 12:04:00,51.9,35.8,30.39,NNW,346,1.0,5.0,54,0.00,,,0.00,Wunderground v.1.15,2013-11-13 18:04:00,
2013-11-13 12:09:00,51.2,34.2,30.38,NNW,328,0.0,4.0,52,0.00,,,0.00,Wunderground v.1.15,2013-11-13 18:09:00,
2013-11-13 12:14:00,51.4,34.8,30.38,NNW,342,3.0,7.0,53,0.00,,,0.00,Wunderground v.1.15,2013-11-13 18:14:00,
2013-11-13 12:19:00,51.4,34.3,30.38,NW,324,0.0,3.0,52,0.00,,,0.00,Wunderground v.1.15,2013-11-13 18:19:00,
2013-11-13 12:24:00,50.8,33.8,30.38,NW,326,0.0,6.0,52,0.00,,,0.00,Wunderground v.1.15,2013-11-13 18:24:00,
2013-11-13 12:29:00,51.4,34.3,30.38,North,9,0.0,2.0,52,0.00,,,0.00,Wunderground v.1.15,2013-11-13 18:29:00,
2013-11-13 12:34:00,52.0,33.9,30.37,NNE,30,0.0,3.0,50,0.00,,,0.00,Wunderground v.1.15,2013-11-13 18:34:00,
2013-11-13 12:39:00,52.7,34.6,30.36,NNW,347,1.0,8.0,50,0.00,,,0.00,Wunderground v.1.15,2013-11-13 18:39:00,
2013-11-13 12:44:00,52.8,34.2,30.36,NNE,16,0.0,8.0,49,0.00,,,0.00,Wunderground v.1.15,2013-11-13 18:44:00,
2013-11-13 12:49:00,53.3,35.6,30.36,NNW,338,0.0,2.0,51,0.00,,,0.00,Wunderground v.1.15,2013-11-13 18:49:00,
2013-11-13 12:54:00,54.2,34.4,30.36,North,4,1.0,4.0,47,0.00,,,0.00,Wunderground v.1.15,2013-11-13 18:54:00,
2013-11-13 12:59:00,54.2,34.4,30.35,NNW,333,2.0,4.0,47,0.00,,,0.00,Wunderground v.1.15,2013-11-13 18:59:00,
2013-11-13 13:04:00,54.0,35.3,30.35,North,356,0.0,4.0,49,0.00,,,0.00,Wunderground v.1.15,2013-11-13 19:04:00,
2013-11-13 13:09:00,54.2,34.4,30.35,NNE,26,2.0,5.0,47,0.00,,,0.00,Wunderground v.1.15,2013-11-13 19:09:00,
2013-11-13 13:14:00,54.7,34.3,30.34,WNW,300,1.0,5.0,46,0.00,,,0.00,Wunderground v.1.15,2013-11-13 19:14:00,
2013-11-13 13:19:00,54.7,33.2,30.34,NNW,328,0.0,6.0,44,0.00,,,0.00,Wunderground v.1.15,2013-11-13 19:19:00,
2013-11-13 13:24:00,54.9,33.4,30.33,NW,316,1.0,6.0,44,0.00,,,0.00,Wunderground v.1.15,2013-11-13 19:24:00,
2013-11-13 13:29:00,54.7,33.2,30.34,NW,305,1.0,2.0,44,0.00,,,0.00,Wunderground v.1.15,2013-11-13 19:29:00,
2013-11-13 13:34:00,54.4,32.9,30.33,WNW,284,0.0,3.0,44,0.00,,,0.00,Wunderground v.1.15,2013-11-13 19:34:00,
2013-11-13 13:39:00,54.0,32.0,30.33,North,8,1.0,2.0,43,0.00,,,0.00,Wunderground v.1.15,2013-11-13 19:39:00,
2013-11-13 13:44:00,54.4,34.0,30.33,East,83,0.0,3.0,46,0.00,,,0.00,Wunderground v.1.15,2013-11-13 19:44:00,
2013-11-13 13:49:00,54.9,33.4,30.33,NE,55,0.0,3.0,44,0.00,,,0.00,Wunderground v.1.15,2013-11-13 19:49:00,
2013-11-13 13:54:00,55.3,33.7,30.33,NNE,23,1.0,3.0,44,0.00,,,0.00,Wunderground v.1.15,2013-11-13 19:54:00,
2013-11-13 13:59:00,55.8,33.6,30.33,NW,309,1.0,4.0,43,0.00,,,0.00,Wunderground v.1.15,2013-11-13 19:59:00,
2013-11-13 14:04:00,55.9,33.7,30.33,NNE,25,0.0,5.0,43,0.00,,,0.00,Wunderground v.1.15,2013-11-13 20:04:00,
2013-11-13 14:09:00,56.2,34.0,30.32,NW,315,1.0,2.0,43,0.00,,,0.00,Wunderground v.1.15,2013-11-13 20:09:00,
2013-11-13 14:14:00,56.2,33.4,30.32,ENE,57,1.0,4.0,42,0.00,,,0.00,Wunderground v.1.15,2013-11-13 20:14:00,
2013-11-13 14:19:00,56.2,34.0,30.33,ENE,67,2.0,4.0,43,0.00,,,0.00,Wunderground v.1.15,2013-11-13 20:19:00,
2013-11-13 14:24:00,56.2,32.8,30.32,NNW,343,2.0,4.0,41,0.00,,,0.00,Wunderground v.1.15,2013-11-13 20:24:00,
2013-11-13 14:29:00,56.1,32.7,30.32,NNE,16,0.0,2.0,41,0.00,,,0.00,Wunderground v.1.15,2013-11-13 20:29:00,
2013-11-13 14:34:00,56.1,32.1,30.32,NNW,342,1.0,2.0,40,0.00,,,0.00,Wunderground v.1.15,2013-11-13 20:34:00,
2013-11-13 14:39:00,56.0,32.0,30.32,West,281,0.0,1.0,40,0.00,,,0.00,Wunderground v.1.15,2013-11-13 20:39:00,
2013-11-13 14:44:00,55.5,31.5,30.32,NNE,18,0.0,3.0,40,0.00,,,0.00,Wunderground v.1.15,2013-11-13 20:44:00,
2013-11-13 14:49:00,55.5,32.2,30.31,NW,326,0.0,2.0,41,0.00,,,0.00,Wunderground v.1.15,2013-11-13 20:49:00,
2013-11-13 14:54:00,56.2,32.8,30.31,NNW,345,0.0,2.0,41,0.00,,,0.00,Wunderground v.1.15,2013-11-13 20:54:00,
2013-11-13 14:59:00,56.3,32.3,30.30,North,4,0.0,5.0,40,0.00,,,0.00,Wunderground v.1.15,2013-11-13 20:59:00,
2013-11-13 15:04:00,56.7,32.6,30.30,NW,313,0.0,5.0,40,0.00,,,0.00,Wunderground v.1.15,2013-11-13 21:04:00,
2013-11-13 15:09:00,56.4,31.7,30.30,NW,321,0.0,3.0,39,0.00,,,0.00,Wunderground v.1.15,2013-11-13 21:09:00,
2013-11-13 15:14:00,56.2,33.4,30.30,NNW,345,2.0,3.0,42,0.00,,,0.00,Wunderground v.1.15,2013-11-13 21:14:00,
2013-11-13 15:19:00,56.7,33.2,30.30,North,358,0.0,1.0,41,0.00,,,0.00,Wunderground v.1.15,2013-11-13 21:19:00,
2013-11-13 15:24:00,57.1,33.0,30.30,NE,34,0.0,2.0,40,0.00,,,0.00,Wunderground v.1.15,2013-11-13 21:24:00,
2013-11-13 15:29:00,57.2,32.4,30.30,ENE,65,0.0,2.0,39,0.00,,,0.00,Wunderground v.1.15,2013-11-13 21:29:00,
2013-11-13 15:34:00,56.8,33.3,30.30,NE,37,0.0,2.0,41,0.00,,,0.00,Wunderground v.1.15,2013-11-13 21:34:00,
2013-11-13 15:39:00,56.4,31.7,30.30,NNW,330,1.0,3.0,39,0.00,,,0.00,Wunderground v.1.15,2013-11-13 21:39:00,
2013-11-13 15:44:00,55.9,35.4,30.30,NNE,33,0.0,3.0,46,0.00,,,0.00,Wunderground v.1.15,2013-11-13 21:44:00,
2013-11-13 15:49:00,55.3,36.5,30.29,North,10,3.0,3.0,49,0.00,,,0.00,Wunderground v.1.15,2013-11-13 21:49:00,
2013-11-13 15:54:00,55.1,36.8,30.30,East,97,0.0,6.0,50,0.00,,,0.00,Wunderground v.1.15,2013-11-13 21:54:00,
2013-11-13 15:59:00,55.2,36.4,30.30,East,89,1.0,4.0,49,0.00,,,0.00,Wunderground v.1.15,2013-11-13 21:59:00,
2013-11-13 16:04:00,55.1,36.8,30.29,ENE,67,1.0,4.0,50,0.00,,,0.00,Wunderground v.1.15,2013-11-13 22:04:00,
2013-11-13 16:09:00,55.2,36.9,30.29,ENE,76,2.0,5.0,50,0.00,,,0.00,Wunderground v.1.15,2013-11-13 22:09:00,
2013-11-13 16:14:00,55.0,36.7,30.29,NE,35,0.0,6.0,50,0.00,,,0.00,Wunderground v.1.15,2013-11-13 22:14:00,
2013-11-13 16:19:00,54.7,36.9,30.30,ENE,70,0.0,4.0,51,0.00,,,0.00,Wunderground v.1.15,2013-11-13 22:19:00,
2013-11-13 16:24:00,54.4,36.6,30.29,ESE,105,1.0,5.0,51,0.00,,,0.00,Wunderground v.1.15,2013-11-13 22:24:00,
2013-11-13 16:29:00,54.1,36.9,30.29,NE,41,1.0,2.0,52,0.00,,,0.00,Wunderground v.1.15,2013-11-13 22:29:00,
2013-11-13 16:34:00,53.9,36.7,30.28,ENE,63,0.0,4.0,52,0.00,,,0.00,Wunderground v.1.15,2013-11-13 22:34:00,
2013-11-13 16:39:00,53.7,37.4,30.29,ESE,118,0.0,2.0,54,0.00,,,0.00,Wunderground v.1.15,2013-11-13 22:39:00,
2013-11-13 16:44:00,53.5,36.8,30.29,ENE,74,0.0,2.0,53,0.00,,,0.00,Wunderground v.1.15,2013-11-13 22:44:00,
2013-11-13 16:49:00,53.0,36.8,30.29,ENE,62,0.0,2.0,54,0.00,,,0.00,Wunderground v.1.15,2013-11-13 22:49:00,
2013-11-13 16:54:00,52.6,37.3,30.29,East,80,0.0,2.0,56,0.00,,,0.00,Wunderground v.1.15,2013-11-13 22:54:00,
2013-11-13 16:59:00,52.2,38.3,30.28,East,81,0.0,0.0,59,0.00,,,0.00,Wunderground v.1.15,2013-11-13 22:59:00,
2013-11-13 17:03:00,51.7,37.8,30.28,East,81,0.0,1.0,59,0.00,,,0.00,Wunderground v.1.15,2013-11-13 23:03:00,
2013-11-13 17:08:00,51.3,38.3,30.28,East,81,0.0,0.0,61,0.00,,,0.00,Wunderground v.1.15,2013-11-13 23:08:00,
2013-11-13 17:13:00,51.0,38.4,30.27,East,81,0.0,1.0,62,0.00,,,0.00,Wunderground v.1.15,2013-11-13 23:13:00,
2013-11-13 17:18:00,50.8,37.8,30.27,ESE,116,0.0,1.0,61,0.00,,,0.00,Wunderground v.1.15,2013-11-13 23:18:00,
2013-11-13 17:23:00,50.6,38.5,30.28,East,95,0.0,1.0,63,0.00,,,0.00,Wunderground v.1.15,2013-11-13 23:23:00,
2013-11-13 17:28:00,50.3,38.2,30.28,East,94,0.0,0.0,63,0.00,,,0.00,Wunderground v.1.15,2013-11-13 23:28:00,
2013-11-13 17:33:00,49.9,37.8,30.28,East,95,0.0,0.0,63,0.00,,,0.00,Wunderground v.1.15,2013-11-13 23:33:00,
2013-11-13 17:38:00,49.6,37.5,30.27,East,95,0.0,1.0,63,0.00,,,0.00,Wunderground v.1.15,2013-11-13 23:38:00,
2013-11-13 17:43:00,49.4,37.7,30.28,East,95,0.0,1.0,64,0.00,,,0.00,Wunderground v.1.15,2013-11-13 23:43:00,
2013-11-13 17:48:00,49.2,37.9,30.28,ESE,110,0.0,2.0,65,0.00,,,0.00,Wunderground v.1.15,2013-11-13 23:48:00,
2013-11-13 17:53:00,49.3,38.0,30.28,ESE,115,0.0,2.0,65,0.00,,,0.00,Wunderground v.1.15,2013-11-13 23:53:00,
2013-11-13 17:58:00,49.1,37.8,30.27,ESE,115,0.0,0.0,65,0.00,,,0.00,Wunderground v.1.15,2013-11-13 23:58:00,
2013-11-13 18:03:00,48.7,37.8,30.28,ESE,109,1.0,1.0,66,0.00,,,0.00,Wunderground v.1.15,2013-11-14 00:03:00,